Temperature
17 17 17 17 18 18 18 18 18 18 18 18 17 17 17 17 17 17 17 17 17 17 17 17 17 17 17 17 17 18 18 18 18 18 18 18 18 18 18 18 18 18 18
17 17 17 17 17 18 18 18 17 17 17 17 17 17 17 17 17 17 17 17 17 17 17 17 17 17 17 17 17 17 18 18 18 18 18 18 18 18 18 18 18 18 18
17 17 17 17 17 17 17 17 17 17 17 17 17 17 17 17 17 17 17 17 17 17 17 17 17 17 17 17 17 17 17 17 18 18 17 17 17 18 18 18 18 18 18
16 16 17 17 17 17 17 17 17 17 17 17 17 17 17 17 17 17 17 17 17 17 17 17 17 17 17 17 17 17 17 17 17 17 17 17 17 17 18 18 18 18 18
16 16 16 17 17 17 17 17 17 17 17 17 17 17 17 16 16 16 17 17 17 17 17 17 17 17 17 17 17 17 17 17 17 17 17 17 17 17 17 18 18 18 18
16 16 16 17 17 17 17 17 17 17 16 16 16 16 16 16 16 16 16 16 16 16 16 17 17 17 17 17 17 17 17 17 17 16 17 17 17 17 17 17 17 17 17
16 16 16 16 16 17 16 17 16 16 16 16 16 16 16 16 16 16 16 16 16 16 16 16 16 16 17 17 17 17 17 17 16 16 16 16 17 17 17 17 17 17 17
16 16 16 16 16 16 16 16 16 16 16 16 16 16 16 16 16 16 16 16 16 16 16 16 16 16 16 16 16 17 17 16 16 16 16 16 17 17 17 17 17 17 17
16 16 16 16 16 16 16 16 16 16 16 16 16 16 16 16 16 16 16 16 16 16 16 16 16 16 16 16 16 16 16 16 16 16 16 16 17 17 17 17 17 17 17
16 16 16 16 16 16 16 16 16 16 16 16 16 16 16 16 16 16 16 16 16 16 16 16 16 16 16 16 16 16 16 16 16 16 16 16 16 16 17 17 17 17 17
16 16 16 16 16 16 16 16 16 16 16 16 16 16 16 16 16 16 16 16 16 16 16 16 16 16 16 16 16 16 16 16 16 16 16 16 16 16 16 16 17 17 17
17 16 16 16 16 16 16 16 16 16 16 16 16 16 16 16 16 16 16 16 16 16 16 16 16 16 16 16 16 16 16 16 16 15 16 16 16 16 16 16 16 16 16
17 16 16 16 16 16 16 16 16 16 16 16 16 16 16 16 16 16 16 16 16 16 16 16 16 16 16 16 16 16 16 16 16 15 15 16 16 16 16 16 16 16 16
17 16 17 17 17 17 16 16 16 16 16 16 16 16 16 16 16 16 16 15 15 16 15 16 15 16 16 16 16 16 15 15 15 15 15 15 15 16 16 16 16 16 16
17 17 17 16 17 17 16 16 16 16 16 16 16 16 16 16 16 16 16 15 15 15 15 15 16 15 15 15 15 15 15 15 15 15 15 15 15 15 15 15 15 15 15
17 17 17 17 17 17 17 16 16 16 16 16 15 15 16 15 16 15 15 15 15 15 15 15 15 15 15 15 15 15 15 15 15 15 15 15 15 15 15 15 15 15 15
17 17 17 17 17 17 16 16 16 16 16 16 16 16 15 15 15 15 15 15 15 15 15 15 15 15 15 15 15 15 15 14 14 14 14 14 14 15 15 15 15 15 15
17 17 17 16 16 16 16 16 16 16 16 16 16 15 15 15 15 15 15 15 15 15 15 15 15 15 15 15 15 14 14 14 14 14 14 14 14 14 14 15 15 15 15
17 17 17 16 16 16 16 16 16 16 16 16 15 15 15 15 15 15 15 15 15 15 15 15 15 15 15 15 14 14 14 14 14 14 14 14 14 14 14 14 14 14 14
17 17 17 16 16 16 16 16 16 16 16 15 15 15 15 15 15 15 15 15 15 15 15 15 15 15 15 15 15 14 14 14 14 14 14 14 14 14 14 14 14 14 14
17 17 17 16 16 16 16 16 16 15 15 15 15 15 15 15 15 15 15 15 15 15 15 15 15 15 14 14 15 14 14 14 14 14 13 14 13 13 13 13 13 13 13
17 17 16 16 16 16 16 16 15 15 15 15 15 15 15 15 15 15 15 15 15 15 15 15 15 15 14 14 15 15 15 14 13 13 13 13 13 13 13 13 13 13 13
17 17 16 16 16 16 16 16 15 15 15 15 15 15 15 15 15 15 15 15 15 15 15 15 14 14 14 14 15 15 15 15 14 13 13 13 13 13 13 13 13 13 13
17 17 16 16 16 16 16 16 15 15 15 15 15 15 15 15 15 15 15 15 15 15 14 14 14 14 14 14 14 15 15 14 15 14 13 13 13 12 12 12 12 12 12
17 17 16 16 16 16 16 16 15 15 15 15 15 15 15 15 15 15 15 15 15 15 14 14 14 14 14 14 14 14 14 14 14 14 14 13 12 12 12 12 12 12 12
17 17 16 16 16 16 16 16 16 15 15 15 15 15 15 15 15 15 15 15 15 14 15 15 14 14 14 14 14 14 14 14 14 14 14 13 13 12 12 12 12 12 12
Wind_Speed
3 4 6 6 7 9 9 9 9 9 10 10 10 10 10 11 11 11 11 11 10 10 10 10 10 10 10 10 10 10 10 10 9 9 8 8 7 7 7 6 4 7 9
5 6 7 7 8 9 9 9 9 10 11 10 10 10 10 10 11 11 11 11 10 10 10 10 10 10 10 10 10 10 10 10 10 8 5 6 8 8 7 7 8 8 8
6 7 8 8 8 9 9 9 9 10 10 10 9 10 10 10 10 11 11 10 9 9 10 10 10 10 10 10 10 10 10 10 9 6 3 5 8 9 8 8 8 8 8
7 7 8 8 8 8 9 10 11 11 11 10 10 11 10 10 10 10 10 10 10 10 10 10 10 10 10 10 10 9 9 9 8 4 5 8 8 10 8 8 8 7 7
8 8 10 9 9 9 10 10 10 10 11 11 11 11 11 10 10 9 9 9 9 9 9 9 9 9 9 10 10 9 9 8 5 5 8 8 9 9 9 8 8 7 8
8 9 11 10 10 10 11 11 10 11 11 11 11 10 10 10 9 9 8 8 8 8 8 8 8 9 9 9 9 9 8 6 4 8 7 8 9 9 9 9 8 8 9
8 9 11 11 10 10 10 10 10 10 10 10 10 10 9 9 8 8 8 8 8 8 8 8 8 9 9 9 9 8 8 5 7 7 7 8 10 9 9 9 9 9 9
8 8 9 11 9 10 10 11 10 10 10 10 10 10 9 8 8 8 8 8 8 8 8 8 8 9 9 9 9 8 7 5 7 7 8 9 10 9 9 9 9 9 8
9 8 8 9 10 10 10 10 10 11 11 10 10 10 10 9 9 8 8 8 8 9 9 9 10 10 10 9 10 9 7 5 6 6 8 9 9 9 9 9 9 9 9
7 7 7 8 8 9 11 12 11 11 11 11 10 10 8 8 8 7 7 9 8 9 9 10 9 9 10 10 9 8 4 2 7 7 8 10 9 9 9 9 9 9 9
7 6 6 7 7 8 9 10 9 9 9 8 9 7 4 6 7 7 11 9 9 9 10 10 10 9 8 10 9 5 3 6 7 8 10 10 9 10 10 10 9 9 8
7 6 6 6 6 7 7 7 6 7 6 6 6 6 6 6 7 7 9 9 9 8 9 8 7 6 3 7 7 3 6 7 7 9 11 11 10 10 10 10 10 9 8
7 6 5 5 6 5 5 5 5 5 5 5 6 6 6 5 5 5 5 5 6 5 6 6 4 5 6 7 6 8 8 8 8 9 12 12 12 11 11 11 10 10 10
7 6 4 4 5 4 5 4 4 4 4 4 4 6 5 4 4 5 4 4 4 4 5 4 4 6 7 8 8 9 9 8 9 9 12 14 13 13 12 11 11 11 10
7 5 4 4 4 4 5 3 4 4 4 5 4 4 5 4 4 4 4 4 4 5 5 5 5 7 8 8 9 9 10 11 10 10 11 14 14 14 13 13 12 12 11
7 6 5 4 3 3 4 4 4 5 4 4 4 4 5 4 4 3 4 4 4 4 5 5 7 7 7 8 8 9 9 10 10 10 10 12 15 15 14 13 13 13 12
6 6 5 4 4 4 4 4 4 4 4 4 4 4 5 5 4 4 4 4 4 4 5 6 8 7 7 7 8 8 9 10 9 10 10 10 12 15 16 15 14 13 13
6 6 6 4 4 4 4 4 4 4 4 4 4 4 5 5 5 4 3 3 4 4 5 5 5 6 6 6 7 6 7 8 10 10 11 11 11 11 15 17 16 15 14
6 6 7 6 5 5 5 5 4 5 4 4 4 4 5 5 5 5 4 3 5 4 4 4 5 5 6 6 7 6 7 7 8 9 10 12 12 12 11 14 16 17 16
7 7 7 6 6 6 5 4 4 4 4 4 4 4 4 4 5 5 4 4 4 4 4 4 6 6 6 6 7 7 7 7 7 8 9 10 11 12 12 11 11 13 16
8 8 7 7 6 5 4 4 3 3 3 3 4 4 4 5 5 5 3 4 3 4 4 5 5 6 5 4 5 6 7 7 7 6 7 8 10 10 11 11 11 10 11
9 9 9 8 7 6 4 3 3 3 3 3 3 4 4 5 4 4 4 3 4 4 4 4 4 3 3 1 1 2 3 4 5 6 6 6 7 8 10 12 12 11 11
10 10 8 8 7 6 6 4 4 4 3 3 3 3 3 4 4 4 4 4 3 3 3 3 3 3 3 2 2 1 0 2 3 4 6 6 6 7 8 9 11 12 12
11 10 9 9 8 7 7 6 5 4 3 3 3 3 4 4 4 4 4 4 3 3 3 3 2 2 1 2 2 3 3 2 1 3 4 5 6 6 7 7 9 10 11
11 10 10 9 8 8 7 7 6 5 4 4 4 4 4 4 4 4 4 4 4 3 3 3 2 1 1 1 1 2 2 2 1 1 2 3 4 5 5 7 7 9 10
10 10 10 10 8 8 8 8 7 6 6 5 5 4 4 4 3 4 4 4 4 3 3 3 3 3 2 2 1 2 1 1 1 1 1 2 3 4 5 5 6 7 8
Wind_Direction
82 76 89 93 94 93 91 92 101 103 102 99 95 94 95 95 95 93 92 89 86 85 83 79 78 78 76 74 72 69 67 65 65 62 63 68 65 62 61 57 56 81 76
94 91 96 92 91 90 92 93 99 101 101 97 93 91 91 92 93 92 90 87 86 85 82 79 77 78 75 73 71 67 65 64 61 57 56 86 77 62 61 56 45 64 70
94 92 100 91 91 90 91 92 95 95 96 95 93 90 87 86 88 90 91 90 87 85 80 79 77 77 76 73 71 68 63 62 58 48 4 64 86 70 63 63 63 66 70
95 92 88 90 92 92 92 89 87 90 91 92 89 87 85 83 83 82 82 86 85 82 79 77 74 75 75 73 73 71 65 60 51 16 45 55 69 70 63 63 64 66 70
90 89 86 84 90 87 88 88 86 89 91 91 91 88 86 84 82 80 79 82 84 81 80 78 75 76 76 72 72 72 67 63 57 47 55 55 63 66 63 65 65 68 71
90 86 85 80 85 86 88 88 87 90 91 89 87 85 84 83 81 79 79 80 82 82 82 79 78 78 78 75 71 70 65 55 60 59 56 53 60 62 61 64 63 66 69
93 87 86 80 83 87 89 89 88 90 90 88 84 80 78 78 77 76 75 75 77 79 80 82 82 80 79 76 72 68 63 43 58 62 60 57 56 55 58 60 62 65 66
97 93 93 94 90 85 85 87 84 86 86 84 80 75 74 73 74 73 72 74 75 76 78 83 84 80 78 75 70 66 52 13 66 62 62 62 55 55 57 59 63 65 69
96 94 93 99 102 99 86 84 83 81 81 80 78 74 73 72 72 71 73 74 76 76 81 86 85 82 76 72 72 69 63 32 55 56 60 60 54 56 60 61 62 64 65
102 99 98 97 96 99 96 86 84 82 82 81 79 76 79 88 87 89 89 76 77 81 85 88 85 84 81 75 73 70 63 56 56 61 54 60 55 57 61 61 62 63 62
113 106 100 99 94 93 93 95 95 92 89 102 96 91 99 86 84 90 72 76 80 83 86 89 89 91 96 89 76 68 55 61 61 55 53 51 52 58 61 61 63 62 61
125 115 107 99 96 91 88 94 89 90 91 87 87 83 76 76 73 73 87 80 84 90 96 93 101 117 111 89 93 88 68 66 61 60 56 47 53 58 61 62 63 61 61
127 119 116 109 98 94 96 88 85 87 87 81 77 83 81 85 88 79 85 98 98 109 98 106 117 83 80 74 66 66 59 57 59 59 56 50 53 56 59 62 62 62 62
134 129 123 116 110 102 98 90 89 92 89 86 80 77 82 76 71 74 75 69 75 79 85 85 79 84 82 83 75 71 66 61 63 65 58 49 51 55 58 60 59 59 60
140 135 127 123 112 108 103 98 95 87 83 89 78 76 79 77 75 78 80 75 73 78 88 88 85 82 79 75 71 69 68 66 65 64 65 58 55 55 55 57 57 59 59
145 144 140 133 122 118 114 108 91 87 91 82 79 76 77 74 70 74 78 74 72 76 79 88 89 89 83 78 73 69 67 67 62 59 64 73 67 58 53 54 55 56 56
152 151 149 141 135 121 108 95 92 96 95 84 81 74 71 66 67 75 72 83 84 89 92 87 91 93 92 89 80 70 64 59 60 58 58 59 67 65 56 52 52 52 53
161 156 150 149 145 127 117 113 106 99 92 84 79 73 70 67 66 70 74 85 88 90 94 97 100 102 97 89 80 71 70 63 58 55 58 59 57 59 60 52 49 49 48
170 166 161 154 148 133 123 117 105 101 92 85 75 68 64 62 65 76 69 81 97 97 100 105 104 103 98 93 88 77 69 65 61 58 58 56 57 56 59 60 55 50 46
177 174 164 153 154 145 141 129 115 108 100 88 75 66 59 58 65 76 83 91 97 104 104 108 107 98 97 99 92 82 73 72 63 56 55 58 55 55 53 52 54 55 50
179 175 167 165 160 160 154 151 145 132 121 103 82 74 72 66 67 75 76 89 94 101 106 116 116 114 111 111 110 101 88 71 66 63 56 58 62 58 57 53 49 46 54
182 179 175 173 169 169 163 153 146 136 124 102 92 78 77 78 73 75 83 94 100 105 111 113 123 123 112 128 144 144 130 109 72 62 63 58 58 58 54 52 50 46 44
189 183 181 178 175 172 167 157 148 143 146 135 122 104 84 85 81 79 83 85 90 104 109 117 127 127 120 107 25 347 38 81 105 82 65 61 56 53 53 49 48 44 45
192 186 187 185 183 178 178 179 176 173 161 150 138 125 116 101 91 86 88 87 88 94 107 119 116 119 127 118 88 34 31 65 90 115 95 74 63 53 49 46 45 44 44
192 189 191 192 190 187 188 180 188 181 165 157 147 137 134 112 97 95 93 91 89 87 95 97 96 90 95 85 90 96 86 84 44 95 104 97 83 63 53 46 44 43 44
188 189 192 193 192 189 189 187 190 180 175 167 163 153 147 132 112 103 101 97 91 86 90 95 99 94 67 65 61 74 85 72 99 98 110 112 91 78 66 54 46 44 44
Height
1541 1540 1540 1540 1540 1540 1540 1540 1540 1540 1540 1541 1541 1541 1541 1541 1541 1541 1541 1541 1541 1541 1542 1541 1541 1541 1541 1541 1540 1540 1540 1539 1539 1539 1538 1538 1538 1538 1538 1538 1538 1538 1537
1542 1541 1541 1541 1542 1542 1542 1541 1541 1542 1542 1542 1542 1542 1542 1542 1543 1543 1543 1543 1543 1543 1543 1543 1543 1543 1543 1542 1542 1541 1541 1541 1540 1539 1539 1538 1538 1539 1539 1539 1539 1539 1539
1543 1543 1543 1543 1543 1543 1543 1543 1543 1543 1544 1544 1544 1544 1544 1544 1544 1544 1544 1544 1544 1544 1544 1544 1544 1544 1544 1544 1543 1543 1542 1542 1541 1541 1539 1538 1539 1540 1540 1540 1540 1540 1540
1544 1544 1544 1544 1545 1545 1545 1545 1545 1545 1545 1545 1545 1545 1545 1545 1545 1545 1546 1546 1546 1546 1546 1546 1545 1545 1545 1545 1544 1544 1544 1544 1543 1542 1542 1540 1541 1541 1541 1541 1542 1541 1541
1546 1546 1546 1546 1546 1546 1546 1546 1546 1546 1546 1546 1546 1547 1547 1547 1547 1547 1547 1547 1547 1547 1547 1547 1547 1547 1547 1546 1546 1546 1545 1545 1545 1545 1544 1543 1543 1542 1542 1542 1543 1543 1543
1547 1548 1547 1547 1547 1547 1547 1548 1548 1548 1548 1548 1548 1548 1548 1548 1548 1548 1548 1548 1548 1548 1548 1548 1548 1548 1548 1548 1547 1547 1547 1546 1547 1546 1545 1545 1544 1544 1544 1544 1544 1544 1544
1549 1550 1549 1549 1549 1549 1549 1550 1550 1550 1550 1550 1550 1550 1550 1550 1549 1550 1550 1550 1550 1550 1549 1549 1549 1549 1549 1549 1549 1548 1548 1548 1548 1547 1547 1546 1545 1545 1545 1545 1545 1545 1545
1551 1551 1551 1550 1551 1551 1551 1552 1551 1551 1551 1551 1551 1551 1551 1551 1551 1551 1551 1551 1551 1551 1551 1551 1551 1551 1551 1550 1550 1550 1549 1549 1550 1550 1549 1548 1547 1546 1546 1546 1546 1546 1546
1553 1553 1554 1554 1553 1553 1553 1553 1553 1553 1553 1553 1553 1553 1553 1552 1552 1552 1553 1552 1552 1552 1552 1552 1552 1552 1552 1551 1551 1551 1550 1550 1551 1551 1551 1549 1548 1548 1547 1547 1547 1547 1547
1555 1555 1556 1556 1557 1557 1556 1555 1555 1555 1555 1555 1555 1554 1554 1554 1554 1554 1554 1554 1554 1553 1553 1554 1553 1553 1553 1552 1552 1552 1552 1552 1552 1552 1552 1550 1549 1549 1548 1548 1548 1548 1548
1556 1557 1558 1558 1558 1559 1558 1557 1557 1557 1557 1557 1557 1556 1557 1558 1557 1557 1556 1556 1555 1555 1555 1555 1555 1555 1554 1554 1553 1553 1553 1554 1553 1553 1552 1551 1550 1550 1549 1549 1549 1549 1549
1558 1559 1560 1560 1560 1560 1560 1560 1560 1560 1559 1560 1560 1559 1559 1559 1558 1558 1557 1557 1557 1557 1557 1557 1556 1556 1556 1556 1555 1555 1556 1555 1555 1554 1553 1552 1551 1551 1550 1550 1550 1550 1549
1559 1560 1561 1561 1561 1562 1562 1562 1562 1561 1561 1561 1562 1561 1560 1560 1560 1560 1560 1560 1559 1559 1559 1559 1559 1559 1558 1558 1558 1558 1557 1557 1556 1556 1554 1553 1552 1552 1551 1551 1551 1550 1550
1560 1561 1562 1563 1563 1563 1563 1563 1563 1563 1563 1563 1563 1563 1562 1562 1562 1562 1561 1561 1561 1561 1560 1560 1560 1560 1560 1560 1560 1559 1559 1558 1558 1557 1555 1554 1554 1553 1553 1552 1552 1551 1551
1561 1562 1563 1564 1564 1564 1564 1564 1564 1564 1565 1565 1564 1564 1564 1564 1564 1563 1563 1562 1562 1562 1562 1561 1562 1561 1561 1561 1561 1561 1560 1560 1559 1558 1556 1555 1555 1554 1554 1553 1553 1552 1551
1562 1563 1564 1564 1565 1565 1565 1566 1566 1565 1565 1565 1565 1565 1565 1565 1565 1564 1564 1563 1563 1563 1563 1563 1563 1562 1562 1562 1562 1562 1562 1561 1560 1559 1557 1557 1556 1556 1555 1554 1554 1553 1553
1562 1563 1564 1565 1565 1566 1566 1566 1566 1566 1567 1567 1566 1567 1566 1566 1565 1565 1565 1564 1564 1564 1564 1564 1564 1564 1564 1564 1564 1564 1563 1563 1562 1561 1560 1559 1559 1557 1556 1555 1555 1554 1553
1562 1564 1564 1565 1566 1567 1567 1567 1567 1568 1568 1567 1567 1567 1567 1567 1566 1566 1566 1566 1565 1565 1565 1565 1566 1566 1566 1566 1566 1565 1565 1564 1564 1563 1562 1561 1560 1560 1558 1557 1556 1555 1555
1562 1563 1564 1565 1566 1567 1567 1568 1568 1568 1568 1568 1568 1568 1568 1568 1567 1567 1566 1566 1567 1567 1567 1567 1567 1568 1567 1567 1567 1567 1566 1566 1565 1565 1564 1563 1562 1561 1560 1559 1557 1556 1555
1561 1563 1564 1565 1566 1567 1568 1568 1569 1569 1569 1569 1569 1568 1568 1568 1568 1568 1567 1568 1568 1568 1568 1568 1568 1568 1568 1569 1569 1568 1568 1568 1567 1567 1566 1565 1564 1563 1562 1561 1560 1558 1556
1561 1562 1564 1565 1566 1567 1568 1569 1569 1569 1570 1569 1569 1569 1569 1569 1568 1568 1568 1568 1568 1569 1569 1570 1569 1570 1570 1570 1571 1570 1570 1570 1569 1569 1568 1567 1566 1565 1564 1563 1561 1560 1558
1560 1561 1563 1564 1565 1566 1567 1568 1569 1569 1570 1570 1569 1570 1570 1569 1569 1569 1569 1569 1569 1569 1570 1570 1570 1571 1571 1571 1572 1572 1572 1573 1571 1571 1570 1569 1568 1567 1566 1565 1563 1561 1559
1558 1560 1562 1563 1565 1566 1567 1568 1568 1569 1570 1570 1570 1570 1570 1570 1570 1570 1570 1570 1570 1571 1571 1571 1571 1571 1572 1572 1572 1573 1572 1572 1573 1573 1572 1571 1570 1569 1568 1566 1565 1563 1561
1556 1558 1560 1562 1564 1565 1566 1567 1568 1569 1570 1570 1571 1570 1570 1571 1571 1571 1571 1571 1571 1571 1571 1572 1572 1572 1572 1572 1572 1572 1573 1573 1573 1574 1574 1573 1571 1570 1569 1568 1566 1564 1563
1554 1556 1559 1561 1563 1564 1565 1566 1567 1569 1569 1570 1570 1571 1571 1571 1571 1571 1572 1572 1572 1572 1572 1572 1572 1572 1572 1573 1573 1573 1573 1573 1574 1574 1574 1574 1573 1572 1570 1569 1567 1566 1564
1552 1554 1556 1559 1561 1562 1564 1565 1567 1568 1568 1569 1570 1571 1571 1571 1572 1572 1572 1572 1573 1573 1572 1572 1572 1572 1572 1572 1573 1573 1574 1574 1574 1574 1574 1574 1574 1573 1572 1570 1569 1567 1565